Time,TemperatureF,DewpointF,PressureIn,WindDirection,WindDirectionDegrees,WindSpeedMPH,WindSpeedGustMPH,Humidity,HourlyPrecipIn,Conditions,Clouds,dailyrainin,SolarRadiationWatts/m^2,SoftwareType,DateUTC
2013-05-23 00:03:00,70.0,62.0,-100.00,SW,217,5.0,9.0,75,0.00,,,0.08,0.000000,,2013-05-23 04:03:00,
2013-05-23 00:33:00,68.0,62.0,-100.00,SW,223,2.0,8.0,81,0.00,,,0.08,0.000000,,2013-05-23 04:33:00,
2013-05-23 00:43:00,68.0,62.0,-100.00,SW,223,2.0,8.0,81,0.00,,,0.08,0.000000,,2013-05-23 04:43:00,
2013-05-23 00:52:00,68.0,62.0,-100.00,SW,223,2.0,8.0,81,0.00,,,0.08,0.000000,,2013-05-23 04:52:00,
2013-05-23 01:02:00,68.0,62.0,-100.00,SW,223,2.0,8.0,81,0.00,,,0.08,0.000000,,2013-05-23 05:02:00,
2013-05-23 01:32:00,66.0,63.0,-100.00,WSW,243,1.0,6.0,89,0.00,,,0.08,0.000000,,2013-05-23 05:32:00,
2013-05-23 01:43:00,66.0,63.0,-100.00,WSW,243,1.0,6.0,89,0.00,,,0.08,0.000000,,2013-05-23 05:43:00,
2013-05-23 01:52:00,66.0,63.0,-100.00,WSW,243,1.0,6.0,89,0.00,,,0.08,0.000000,,2013-05-23 05:52:00,
2013-05-23 02:02:00,66.0,63.0,-100.00,WSW,243,1.0,6.0,89,0.00,,,0.08,0.000000,,2013-05-23 06:02:00,
2013-05-23 02:32:00,68.0,62.0,-100.00,SW,226,5.0,10.0,81,0.00,,,0.08,0.000000,,2013-05-23 06:32:00,
2013-05-23 02:42:00,68.0,62.0,-100.00,SW,226,5.0,10.0,81,0.00,,,0.08,0.000000,,2013-05-23 06:42:00,
2013-05-23 02:52:00,68.0,62.0,-100.00,SW,226,5.0,10.0,81,0.00,,,0.08,0.000000,,2013-05-23 06:52:00,
2013-05-23 03:02:00,68.0,62.0,-100.00,SW,226,5.0,10.0,81,0.00,,,0.08,0.000000,,2013-05-23 07:02:00,
2013-05-23 03:32:00,66.0,62.0,-100.00,SW,232,4.0,11.0,87,0.00,,,0.08,0.000000,,2013-05-23 07:32:00,
2013-05-23 03:42:00,66.0,62.0,-100.00,SW,232,4.0,11.0,87,0.00,,,0.08,0.000000,,2013-05-23 07:42:00,
2013-05-23 03:59:00,66.0,62.0,-100.00,SW,232,4.0,11.0,87,0.00,,,0.08,0.000000,,2013-05-23 07:59:00,
2013-05-23 04:32:00,66.0,62.0,-100.00,WSW,246,4.0,10.0,88,0.00,,,0.08,0.000000,,2013-05-23 08:32:00,
2013-05-23 04:42:00,66.0,62.0,-100.00,WSW,246,4.0,10.0,88,0.00,,,0.08,0.000000,,2013-05-23 08:42:00,
2013-05-23 04:52:00,66.0,62.0,-100.00,WSW,246,4.0,10.0,88,0.00,,,0.08,0.000000,,2013-05-23 08:52:00,
2013-05-23 05:02:00,66.0,62.0,-100.00,WSW,246,4.0,10.0,88,0.00,,,0.08,0.000000,,2013-05-23 09:02:00,
2013-05-23 05:33:00,64.0,62.0,-100.00,SW,224,3.0,7.0,92,0.00,,,0.08,0.000000,,2013-05-23 09:33:00,
2013-05-23 05:42:00,64.0,62.0,-100.00,SW,224,3.0,7.0,92,0.00,,,0.08,0.000000,,2013-05-23 09:42:00,
2013-05-23 05:53:00,64.0,62.0,-100.00,SW,224,3.0,7.0,92,0.00,,,0.08,0.000000,,2013-05-23 09:53:00,
2013-05-23 06:03:00,64.0,62.0,-100.00,SW,224,3.0,7.0,92,0.00,,,0.08,0.000000,,2013-05-23 10:03:00,
2013-05-23 06:32:00,64.0,62.0,-100.00,West,259,3.0,6.0,92,0.00,,,0.08,0.000000,,2013-05-23 10:32:00,
2013-05-23 06:42:00,64.0,62.0,-100.00,West,259,3.0,6.0,92,0.00,,,0.08,0.000000,,2013-05-23 10:42:00,
2013-05-23 06:52:00,64.0,62.0,-100.00,West,259,3.0,6.0,92,0.00,,,0.08,0.000000,,2013-05-23 10:52:00,
2013-05-23 07:02:00,64.0,62.0,-100.00,West,259,3.0,6.0,92,0.00,,,0.08,0.000000,,2013-05-23 11:02:00,
2013-05-23 07:32:00,64.0,62.0,-100.00,WSW,258,3.0,7.0,93,0.00,,,0.08,10.000000,,2013-05-23 11:32:00,
2013-05-23 07:42:00,64.0,62.0,-100.00,WSW,258,3.0,7.0,93,0.00,,,0.08,10.000000,,2013-05-23 11:42:00,
2013-05-23 07:52:00,64.0,62.0,-100.00,WSW,258,3.0,7.0,93,0.00,,,0.08,10.000000,,2013-05-23 11:52:00,
2013-05-23 08:01:00,64.0,62.0,-100.00,WSW,258,3.0,7.0,93,0.00,,,0.08,10.000000,,2013-05-23 12:01:00,
2013-05-23 08:32:00,68.0,62.0,-100.00,West,269,2.0,7.0,80,0.00,,,0.08,166.000000,,2013-05-23 12:32:00,
2013-05-23 08:42:00,68.0,62.0,-100.00,West,269,2.0,7.0,80,0.00,,,0.08,166.000000,,2013-05-23 12:42:00,
2013-05-23 08:52:00,68.0,62.0,-100.00,West,269,2.0,7.0,80,0.00,,,0.08,166.000000,,2013-05-23 12:52:00,
2013-05-23 09:01:00,68.0,62.0,-100.00,West,269,2.0,7.0,80,0.00,,,0.08,166.000000,,2013-05-23 13:01:00,
2013-05-23 09:32:00,70.0,61.0,-100.00,WSW,246,4.0,8.0,73,0.00,,,-99.99,418.000000,,2013-05-23 13:32:00,
2013-05-23 09:42:00,70.0,61.0,-100.00,WSW,246,4.0,8.0,73,0.00,,,-99.99,418.000000,,2013-05-23 13:42:00,
2013-05-23 09:52:00,70.0,61.0,-100.00,WSW,246,4.0,8.0,73,0.00,,,-99.99,418.000000,,2013-05-23 13:52:00,
2013-05-23 10:02:00,70.0,61.0,-100.00,WSW,246,4.0,8.0,73,0.00,,,-99.99,418.000000,,2013-05-23 14:02:00,
2013-05-23 10:32:00,71.0,62.0,-100.00,WSW,246,4.0,9.0,73,0.00,,,0.08,648.000000,,2013-05-23 14:32:00,
2013-05-23 10:42:00,71.0,62.0,-100.00,WSW,246,4.0,9.0,73,0.00,,,0.08,648.000000,,2013-05-23 14:42:00,
2013-05-23 10:52:00,71.0,62.0,-100.00,WSW,246,4.0,9.0,73,0.00,,,0.08,648.000000,,2013-05-23 14:52:00,
2013-05-23 11:01:00,71.0,62.0,-100.00,WSW,246,4.0,9.0,73,0.00,,,0.08,648.000000,,2013-05-23 15:01:00,
2013-05-23 11:33:00,73.0,62.0,-100.00,WNW,292,4.0,9.0,69,0.00,,,0.08,758.000000,,2013-05-23 15:33:00,
2013-05-23 11:43:00,73.0,62.0,-100.00,WNW,292,4.0,9.0,69,0.00,,,0.08,758.000000,,2013-05-23 15:43:00,
2013-05-23 11:53:00,73.0,62.0,-100.00,WNW,292,4.0,9.0,69,0.00,,,0.08,758.000000,,2013-05-23 15:53:00,
2013-05-23 12:03:00,73.0,62.0,-100.00,WNW,292,4.0,9.0,69,0.00,,,0.08,758.000000,,2013-05-23 16:03:00,
2013-05-23 12:34:00,73.0,61.0,-100.00,West,264,4.0,11.0,65,0.00,,,0.08,723.000000,,2013-05-23 16:34:00,
2013-05-23 12:43:00,73.0,61.0,-100.00,West,264,4.0,11.0,65,0.00,,,0.08,723.000000,,2013-05-23 16:43:00,
2013-05-23 12:53:00,73.0,61.0,-100.00,West,264,4.0,11.0,65,0.00,,,0.08,723.000000,,2013-05-23 16:53:00,
2013-05-23 13:03:00,73.0,61.0,-100.00,West,264,4.0,11.0,65,0.00,,,0.08,723.000000,,2013-05-23 17:03:00,
2013-05-23 13:33:00,75.0,60.0,-100.00,SW,224,7.0,12.0,59,0.00,,,0.08,891.000000,,2013-05-23 17:33:00,
2013-05-23 13:43:00,75.0,60.0,-100.00,SW,224,7.0,12.0,59,0.00,,,0.08,891.000000,,2013-05-23 17:43:00,
2013-05-23 13:53:00,75.0,60.0,-100.00,SW,224,7.0,12.0,59,0.00,,,0.08,891.000000,,2013-05-23 17:53:00,
2013-05-23 14:01:00,75.0,60.0,-100.00,SW,224,7.0,12.0,59,0.00,,,0.08,891.000000,,2013-05-23 18:01:00,
2013-05-23 14:32:00,77.0,60.0,-100.00,SW,234,6.0,14.0,56,0.00,,,0.08,907.000000,,2013-05-23 18:32:00,
2013-05-23 14:42:00,77.0,60.0,-100.00,SW,234,6.0,14.0,56,0.00,,,0.08,907.000000,,2013-05-23 18:42:00,
2013-05-23 14:52:00,77.0,60.0,-100.00,SW,234,6.0,14.0,56,0.00,,,0.08,907.000000,,2013-05-23 18:52:00,
2013-05-23 15:01:00,77.0,60.0,-100.00,SW,234,6.0,14.0,56,0.00,,,0.08,907.000000,,2013-05-23 19:01:00,
2013-05-23 15:32:00,77.0,57.0,-100.00,SW,229,9.0,17.0,51,0.00,,,0.08,789.000000,,2013-05-23 19:32:00,
2013-05-23 15:42:00,77.0,57.0,-100.00,SW,229,9.0,17.0,51,0.00,,,0.08,789.000000,,2013-05-23 19:42:00,
2013-05-23 15:52:00,77.0,57.0,-100.00,SW,229,9.0,17.0,51,0.00,,,0.08,789.000000,,2013-05-23 19:52:00,
2013-05-23 16:02:00,77.0,57.0,-100.00,SW,229,9.0,17.0,51,0.00,,,0.08,789.000000,,2013-05-23 20:02:00,
2013-05-23 16:32:00,76.0,57.0,-100.00,West,268,8.0,19.0,51,0.00,,,0.08,724.000000,,2013-05-23 20:32:00,
2013-05-23 16:42:00,76.0,57.0,-100.00,West,268,8.0,19.0,51,0.00,,,0.08,724.000000,,2013-05-23 20:42:00,
2013-05-23 16:52:00,76.0,57.0,-100.00,West,268,8.0,19.0,51,0.00,,,0.08,724.000000,,2013-05-23 20:52:00,
2013-05-23 17:01:00,76.0,57.0,-100.00,West,268,8.0,19.0,51,0.00,,,0.08,724.000000,,2013-05-23 21:01:00,
2013-05-23 17:33:00,77.0,54.0,-100.00,West,281,7.0,19.0,45,0.00,,,0.08,663.000000,,2013-05-23 21:33:00,
2013-05-23 17:43:00,77.0,54.0,-100.00,West,281,7.0,19.0,45,0.00,,,0.08,663.000000,,2013-05-23 21:43:00,
2013-05-23 17:53:00,77.0,54.0,-100.00,West,281,7.0,19.0,45,0.00,,,0.08,663.000000,,2013-05-23 21:53:00,
2013-05-23 18:03:00,77.0,54.0,-100.00,West,281,7.0,19.0,45,0.00,,,0.08,663.000000,,2013-05-23 22:03:00,
2013-05-23 18:33:00,73.0,52.0,-100.00,WSW,252,6.0,18.0,47,0.00,,,-99.99,196.000000,,2013-05-23 22:33:00,
2013-05-23 18:42:00,73.0,52.0,-100.00,WSW,252,6.0,18.0,47,0.00,,,-99.99,196.000000,,2013-05-23 22:42:00,
2013-05-23 18:52:00,73.0,52.0,-100.00,WSW,252,6.0,18.0,47,0.00,,,-99.99,196.000000,,2013-05-23 22:52:00,
2013-05-23 19:02:00,73.0,52.0,-100.00,WSW,252,6.0,18.0,47,0.00,,,-99.99,196.000000,,2013-05-23 23:02:00,
2013-05-23 19:32:00,70.0,53.0,-100.00,SW,234,5.0,17.0,55,0.00,,,0.00,86.000000,,2013-05-23 23:32:00,
2013-05-23 19:42:00,70.0,53.0,-100.00,SW,234,5.0,17.0,55,0.00,,,0.00,86.000000,,2013-05-23 23:42:00,
2013-05-23 19:52:00,70.0,53.0,-100.00,SW,234,5.0,17.0,55,0.00,,,0.00,86.000000,,2013-05-23 23:52:00,
2013-05-23 20:01:00,70.0,53.0,-100.00,SW,234,5.0,17.0,55,0.00,,,0.00,86.000000,,2013-05-24 00:01:00,
2013-05-23 20:32:00,68.0,52.0,-100.00,WNW,298,6.0,18.0,57,0.00,,,0.00,111.000000,,2013-05-24 00:32:00,
2013-05-23 20:42:00,68.0,52.0,-100.00,WNW,298,6.0,18.0,57,0.00,,,0.00,111.000000,,2013-05-24 00:42:00,
2013-05-23 20:52:00,68.0,52.0,-100.00,WNW,298,6.0,18.0,57,0.00,,,0.00,111.000000,,2013-05-24 00:52:00,
2013-05-23 21:01:00,68.0,52.0,-100.00,WNW,298,6.0,18.0,57,0.00,,,0.00,111.000000,,2013-05-24 01:01:00,
2013-05-23 21:32:00,67.0,53.0,-100.00,NNE,23,4.0,12.0,61,0.00,,,0.00,13.000000,,2013-05-24 01:32:00,
2013-05-23 21:42:00,67.0,53.0,-100.00,NNE,23,4.0,12.0,61,0.00,,,0.00,13.000000,,2013-05-24 01:42:00,
2013-05-23 21:52:00,67.0,53.0,-100.00,NNE,23,4.0,12.0,61,0.00,,,0.00,13.000000,,2013-05-24 01:52:00,
2013-05-23 22:02:00,67.0,53.0,-100.00,NNE,23,4.0,12.0,61,0.00,,,0.00,13.000000,,2013-05-24 02:02:00,
2013-05-23 22:32:00,65.0,53.0,-100.00,SSW,204,5.0,14.0,64,0.00,,,0.00,0.000000,,2013-05-24 02:32:00,
2013-05-23 22:42:00,65.0,53.0,-100.00,SSW,204,5.0,14.0,64,0.00,,,0.00,0.000000,,2013-05-24 02:42:00,
2013-05-23 22:52:00,65.0,53.0,-100.00,SSW,204,5.0,14.0,64,0.00,,,0.00,0.000000,,2013-05-24 02:52:00,
2013-05-23 23:02:00,65.0,53.0,-100.00,SSW,204,5.0,14.0,64,0.00,,,0.00,0.000000,,2013-05-24 03:02:00,
2013-05-23 23:33:00,63.0,54.0,-100.00,ENE,70,4.0,12.0,72,0.00,,,0.00,0.000000,,2013-05-24 03:33:00,
2013-05-23 23:42:00,63.0,54.0,-100.00,ENE,70,4.0,12.0,72,0.00,,,0.00,0.000000,,2013-05-24 03:42:00,
2013-05-23 23:53:00,63.0,54.0,-100.00,ENE,70,4.0,12.0,72,0.00,,,0.00,0.000000,,2013-05-24 03:53:00,